Time,TemperatureF,DewpointF,PressureIn,WindDirection,WindDirectionDegrees,WindSpeedMPH,WindSpeedGustMPH,Humidity,HourlyPrecipIn,Conditions,Clouds,dailyrainin,SoftwareType,DateUTC
2013-09-11 00:12:00,71.0,48.0,-100.00,North,-999,-999.0,-999.0,44,-99.99,,,-99.99,,2013-09-11 07:12:00,
2013-09-11 00:42:00,71.0,48.0,-100.00,North,-999,-999.0,-999.0,44,-99.99,,,-99.99,,2013-09-11 07:42:00,
2013-09-11 00:52:00,71.0,48.0,-100.00,North,-999,-999.0,-999.0,45,-99.99,,,-99.99,,2013-09-11 07:52:00,
2013-09-11 01:11:00,71.0,49.0,-100.00,North,-999,-999.0,-999.0,46,-99.99,,,-99.99,,2013-09-11 08:11:00,
2013-09-11 01:22:00,70.0,49.0,-100.00,North,-999,-999.0,-999.0,47,-99.99,,,-99.99,,2013-09-11 08:22:00,
2013-09-11 01:42:00,70.0,49.0,-100.00,North,-999,-999.0,-999.0,47,-99.99,,,-99.99,,2013-09-11 08:42:00,
2013-09-11 01:52:00,70.0,49.0,-100.00,North,-999,-999.0,-999.0,48,-99.99,,,-99.99,,2013-09-11 08:52:00,
2013-09-11 02:12:00,70.0,49.0,-100.00,North,-999,-999.0,-999.0,48,-99.99,,,-99.99,,2013-09-11 09:12:00,
2013-09-11 02:21:00,70.0,48.0,-100.00,North,-999,-999.0,-999.0,46,-99.99,,,-99.99,,2013-09-11 09:21:00,
2013-09-11 02:43:00,70.0,49.0,-100.00,North,-999,-999.0,-999.0,46,-99.99,,,-99.99,,2013-09-11 09:43:00,
2013-09-11 03:12:00,70.0,48.0,-100.00,North,-999,-999.0,-999.0,44,-99.99,,,-99.99,,2013-09-11 10:12:00,
2013-09-11 03:23:00,70.0,47.0,-100.00,North,-999,-999.0,-999.0,43,-99.99,,,-99.99,,2013-09-11 10:23:00,
2013-09-11 03:42:00,70.0,47.0,-100.00,North,-999,-999.0,-999.0,44,-99.99,,,-99.99,,2013-09-11 10:42:00,
2013-09-11 03:53:00,70.0,47.0,-100.00,North,-999,-999.0,-999.0,43,-99.99,,,-99.99,,2013-09-11 10:53:00,
2013-09-11 04:12:00,70.0,47.0,-100.00,North,-999,-999.0,-999.0,44,-99.99,,,-99.99,,2013-09-11 11:12:00,
2013-09-11 04:21:00,70.0,47.0,-100.00,North,-999,-999.0,-999.0,44,-99.99,,,-99.99,,2013-09-11 11:21:00,
2013-09-11 04:42:00,70.0,47.0,-100.00,North,-999,-999.0,-999.0,43,-99.99,,,-99.99,,2013-09-11 11:42:00,
2013-09-11 04:52:00,70.0,47.0,-100.00,North,-999,-999.0,-999.0,43,-99.99,,,-99.99,,2013-09-11 11:52:00,
2013-09-11 05:11:00,70.0,47.0,-100.00,North,-999,-999.0,-999.0,45,-99.99,,,-99.99,,2013-09-11 12:11:00,
2013-09-11 05:42:00,70.0,49.0,-100.00,North,-999,-999.0,-999.0,46,-99.99,,,-99.99,,2013-09-11 12:42:00,
2013-09-11 05:52:00,70.0,49.0,-100.00,North,-999,-999.0,-999.0,46,-99.99,,,-99.99,,2013-09-11 12:52:00,
2013-09-11 06:12:00,70.0,49.0,-100.00,North,-999,-999.0,-999.0,47,-99.99,,,-99.99,,2013-09-11 13:12:00,
2013-09-11 07:42:00,68.0,50.0,-100.00,North,-999,-999.0,-999.0,53,-99.99,,,-99.99,,2013-09-11 14:42:00,
2013-09-11 07:52:00,68.0,47.0,-100.00,North,-999,-999.0,-999.0,47,-99.99,,,-99.99,,2013-09-11 14:52:00,
2013-09-11 08:11:00,68.0,49.0,-100.00,North,-999,-999.0,-999.0,51,-99.99,,,-99.99,,2013-09-11 15:11:00,
2013-09-11 08:22:00,65.0,53.0,-100.00,North,-999,-999.0,-999.0,65,-99.99,,,-99.99,,2013-09-11 15:22:00,
2013-09-11 08:43:00,62.0,52.0,-100.00,North,-999,-999.0,-999.0,68,-99.99,,,-99.99,,2013-09-11 15:43:00,
2013-09-11 08:54:00,63.0,52.0,-100.00,North,-999,-999.0,-999.0,67,-99.99,,,-99.99,,2013-09-11 15:54:00,
2013-09-11 09:13:00,65.0,51.0,-100.00,North,-999,-999.0,-999.0,60,-99.99,,,-99.99,,2013-09-11 16:13:00,
2013-09-11 09:23:00,68.0,53.0,-100.00,North,-999,-999.0,-999.0,58,-99.99,,,-99.99,,2013-09-11 16:23:00,
2013-09-11 09:43:00,71.0,46.0,-100.00,North,-999,-999.0,-999.0,41,-99.99,,,-99.99,,2013-09-11 16:43:00,
2013-09-11 09:53:00,72.0,48.0,-100.00,North,-999,-999.0,-999.0,42,-99.99,,,-99.99,,2013-09-11 16:53:00,
2013-09-11 10:12:00,72.0,48.0,-100.00,North,-999,-999.0,-999.0,43,-99.99,,,-99.99,,2013-09-11 17:12:00,
2013-09-11 10:23:00,73.0,49.0,-100.00,North,-999,-999.0,-999.0,43,-99.99,,,-99.99,,2013-09-11 17:23:00,
2013-09-11 10:43:00,73.0,50.0,-100.00,North,-999,-999.0,-999.0,45,-99.99,,,-99.99,,2013-09-11 17:43:00,
2013-09-11 10:52:00,73.0,51.0,-100.00,North,-999,-999.0,-999.0,45,-99.99,,,-99.99,,2013-09-11 17:52:00,
2013-09-11 11:12:00,74.0,48.0,-100.00,North,-999,-999.0,-999.0,40,-99.99,,,-99.99,,2013-09-11 18:12:00,
2013-09-11 11:21:00,74.0,48.0,-100.00,North,-999,-999.0,-999.0,40,-99.99,,,-99.99,,2013-09-11 18:21:00,
2013-09-11 11:42:00,75.0,48.0,-100.00,North,-999,-999.0,-999.0,38,-99.99,,,-99.99,,2013-09-11 18:42:00,
2013-09-11 11:52:00,75.0,47.0,-100.00,North,-999,-999.0,-999.0,36,-99.99,,,-99.99,,2013-09-11 18:52:00,
2013-09-11 12:11:00,77.0,47.0,-100.00,North,-999,-999.0,-999.0,35,-99.99,,,-99.99,,2013-09-11 19:11:00,
2013-09-11 12:21:00,76.0,46.0,-100.00,North,-999,-999.0,-999.0,34,-99.99,,,-99.99,,2013-09-11 19:21:00,
2013-09-11 12:42:00,76.0,46.0,-100.00,North,-999,-999.0,-999.0,34,-99.99,,,-99.99,,2013-09-11 19:42:00,
2013-09-11 12:53:00,77.0,46.0,-100.00,North,-999,-999.0,-999.0,33,-99.99,,,-99.99,,2013-09-11 19:53:00,
2013-09-11 13:12:00,77.0,46.0,-100.00,North,-999,-999.0,-999.0,33,-99.99,,,-99.99,,2013-09-11 20:12:00,
2013-09-11 13:21:00,79.0,47.0,-100.00,North,-999,-999.0,-999.0,33,-99.99,,,-99.99,,2013-09-11 20:21:00,
2013-09-11 13:42:00,78.0,46.0,-100.00,North,-999,-999.0,-999.0,33,-99.99,,,-99.99,,2013-09-11 20:42:00,
2013-09-11 13:52:00,78.0,47.0,-100.00,North,-999,-999.0,-999.0,34,-99.99,,,-99.99,,2013-09-11 20:52:00,
2013-09-11 14:11:00,78.0,47.0,-100.00,North,-999,-999.0,-999.0,34,-99.99,,,-99.99,,2013-09-11 21:11:00,
2013-09-11 14:21:00,78.0,46.0,-100.00,North,-999,-999.0,-999.0,32,-99.99,,,-99.99,,2013-09-11 21:21:00,
2013-09-11 14:44:00,78.0,46.0,-100.00,North,-999,-999.0,-999.0,32,-99.99,,,-99.99,,2013-09-11 21:44:00,
2013-09-11 14:54:00,79.0,46.0,-100.00,North,-999,-999.0,-999.0,31,-99.99,,,-99.99,,2013-09-11 21:54:00,
2013-09-11 15:13:00,79.0,47.0,-100.00,North,-999,-999.0,-999.0,32,-99.99,,,-99.99,,2013-09-11 22:13:00,
2013-09-11 15:43:00,81.0,45.0,-100.00,North,-999,-999.0,-999.0,29,-99.99,,,-99.99,,2013-09-11 22:43:00,
2013-09-11 15:54:00,81.0,48.0,-100.00,North,-999,-999.0,-999.0,31,-99.99,,,-99.99,,2013-09-11 22:54:00,
2013-09-11 16:12:00,82.0,48.0,-100.00,North,-999,-999.0,-999.0,31,-99.99,,,-99.99,,2013-09-11 23:12:00,
2013-09-11 16:22:00,81.0,48.0,-100.00,North,-999,-999.0,-999.0,32,-99.99,,,-99.99,,2013-09-11 23:22:00,
2013-09-11 16:42:00,81.0,47.0,-100.00,North,-999,-999.0,-999.0,30,-99.99,,,-99.99,,2013-09-11 23:42:00,
2013-09-11 16:53:00,80.0,47.0,-100.00,North,-999,-999.0,-999.0,31,-99.99,,,-99.99,,2013-09-11 23:53:00,
2013-09-11 17:11:00,80.0,48.0,-100.00,North,-999,-999.0,-999.0,33,-99.99,,,-99.99,,2013-09-12 00:11:00,
2013-09-11 17:21:00,80.0,47.0,-100.00,North,-999,-999.0,-999.0,31,-99.99,,,-99.99,,2013-09-12 00:21:00,
2013-09-11 17:42:00,79.0,47.0,-100.00,North,-999,-999.0,-999.0,32,-99.99,,,-99.99,,2013-09-12 00:42:00,
2013-09-11 17:52:00,79.0,48.0,-100.00,North,-999,-999.0,-999.0,34,-99.99,,,-99.99,,2013-09-12 00:52:00,
2013-09-11 18:11:00,78.0,48.0,-100.00,North,-999,-999.0,-999.0,34,-99.99,,,-99.99,,2013-09-12 01:11:00,
2013-09-11 18:22:00,78.0,48.0,-100.00,North,-999,-999.0,-999.0,34,-99.99,,,-99.99,,2013-09-12 01:22:00,
2013-09-11 18:42:00,79.0,46.0,-100.00,North,-999,-999.0,-999.0,31,-99.99,,,-99.99,,2013-09-12 01:42:00,
2013-09-11 18:52:00,78.0,48.0,-100.00,North,-999,-999.0,-999.0,35,-99.99,,,-99.99,,2013-09-12 01:52:00,
2013-09-11 19:12:00,77.0,47.0,-100.00,North,-999,-999.0,-999.0,35,-99.99,,,-99.99,,2013-09-12 02:12:00,
2013-09-11 19:22:00,74.0,50.0,-100.00,North,-999,-999.0,-999.0,44,-99.99,,,-99.99,,2013-09-12 02:22:00,
2013-09-11 20:11:00,69.0,50.0,-100.00,North,-999,-999.0,-999.0,50,-99.99,,,-99.99,,2013-09-12 03:11:00,
2013-09-11 20:22:00,69.0,49.0,-100.00,North,-999,-999.0,-999.0,50,-99.99,,,-99.99,,2013-09-12 03:22:00,
2013-09-11 20:44:00,68.0,52.0,-100.00,North,-999,-999.0,-999.0,56,-99.99,,,-99.99,,2013-09-12 03:44:00,
2013-09-11 20:55:00,68.0,52.0,-100.00,North,-999,-999.0,-999.0,57,-99.99,,,-99.99,,2013-09-12 03:55:00,
2013-09-11 21:14:00,68.0,49.0,-100.00,North,-999,-999.0,-999.0,51,-99.99,,,-99.99,,2013-09-12 04:14:00,
2013-09-11 21:23:00,68.0,48.0,-100.00,North,-999,-999.0,-999.0,50,-99.99,,,-99.99,,2013-09-12 04:23:00,
2013-09-11 21:44:00,69.0,45.0,-100.00,North,-999,-999.0,-999.0,42,-99.99,,,-99.99,,2013-09-12 04:44:00,
2013-09-11 21:54:00,68.0,47.0,-100.00,North,-999,-999.0,-999.0,47,-99.99,,,-99.99,,2013-09-12 04:54:00,
2013-09-11 22:13:00,68.0,46.0,-100.00,North,-999,-999.0,-999.0,45,-99.99,,,-99.99,,2013-09-12 05:13:00,
2013-09-11 22:22:00,68.0,47.0,-100.00,North,-999,-999.0,-999.0,47,-99.99,,,-99.99,,2013-09-12 05:22:00,
2013-09-11 22:43:00,67.0,49.0,-100.00,North,-999,-999.0,-999.0,52,-99.99,,,-99.99,,2013-09-12 05:43:00,
2013-09-11 22:53:00,66.0,48.0,-100.00,North,-999,-999.0,-999.0,52,-99.99,,,-99.99,,2013-09-12 05:53:00,
2013-09-11 23:12:00,70.0,47.0,-100.00,North,-999,-999.0,-999.0,44,-99.99,,,-99.99,,2013-09-12 06:12:00,
2013-09-11 23:21:00,69.0,45.0,-100.00,North,-999,-999.0,-999.0,42,-99.99,,,-99.99,,2013-09-12 06:21:00,
2013-09-11 23:42:00,70.0,49.0,-100.00,North,-999,-999.0,-999.0,47,-99.99,,,-99.99,,2013-09-12 06:42:00,
2013-09-11 23:52:00,68.0,48.0,-100.00,North,-999,-999.0,-999.0,48,-99.99,,,-99.99,,2013-09-12 06:52:00,